Flag for U.S.A. Weather past 2 weeks in Salina, Kansas, U.S.A.

Now
56 °F

Mostly cloudy.


Feels Like: 53 °F
Forecast: 54 / 64 °F
Wind: 10 mph from Southeast

Location: Salina Municipal Airport

Current Time: May 23, 2015 at 1:38:55 AM

Latest Report: May 23, 2015 at 12:53 AM


Visibility: 9 mi

Pressure: 30.16 "Hg

Humidity: 87%

Dew point: 52 °F

Location of SalinaLocation

Historic Weather in Salina — Graph

°F

Salina temperature yesterday

Maximum temperature yesterday: 61 °F (at 6:53 PM)
Minimum temperature yesterday: 50 °F (at 4:53 AM)
Average temperature yesterday: 56 °F

Past Weeks' High & Low Weather Summary

 TemperatureHumidityPressure
High83 °F (May 17, 3:53 PM)94% (May 15, 5:53 AM)30.35 "Hg (May 15, 5:53 AM)
Low39 °F (May 12, 5:53 AM)26% (May 11, 5:53 PM)29.58 "Hg (May 17, 4:53 AM)
Average60 °F72%30.03 "Hg
* Reported May 7 11:53 PM — May 22 11:53 PM, Salina, Weather by CustomWeather, © 2015

Note: Actual official high and low records may vary slightly from our data, if they occured in-between our weather recording intervals... More about our weather records

Advertising

Salina weather history for previous 24 hours

 ConditionsComfort  
Time TempWeatherWind HumidityBarometerVisibility
11:53 PM
Fri, May 22
56 °FFog.12 mph87%30.16 "Hg5 mi
10:53 PM59 °FOvercast.14 mph72%30.16 "Hg10 mi
9:53 PM59 °FOvercast.9 mph75%30.14 "Hg10 mi
8:53 PM59 °FOvercast.9 mph78%30.14 "Hg10 mi
7:53 PM60 °FOvercast.10 mph78%30.13 "Hg10 mi
6:53 PM61 °FOvercast.8 mph78%30.12 "Hg10 mi
5:53 PM60 °FOvercast.9 mph83%30.14 "Hg10 mi
4:53 PM59 °FLight rain. Fog.10 mph87%30.16 "Hg5 mi
3:53 PM58 °FFog.8 mph90%30.17 "Hg5 mi
2:53 PM60 °FMostly cloudy.13 mph75%30.18 "Hg10 mi
1:53 PM60 °FMostly cloudy.13 mph72%30.19 "Hg10 mi
12:53 PM59 °FMostly cloudy.13 mph72%30.20 "Hg10 mi
11:53 AM57 °FMostly cloudy.10 mph78%30.22 "Hg10 mi
10:53 AM56 °FMostly cloudy.9 mph81%30.22 "Hg10 mi
9:53 AM55 °FOvercast.6 mph83%30.20 "Hg10 mi
8:53 AM53 °FLight rain. Overcast.6 mph86%30.22 "Hg10 mi
7:53 AM52 °FLight rain. Overcast.6 mph86%30.24 "Hg10 mi
6:53 AM50 °FPassing clouds.5 mph89%30.23 "Hg10 mi
5:53 AM51 °FClear.No wind80%30.19 "Hg10 mi
4:53 AM50 °FClear.No wind83%30.20 "Hg10 mi
3:53 AM51 °FClear.No wind77%30.21 "Hg10 mi
2:53 AM52 °FClear.No wind75%30.20 "Hg10 mi
1:53 AM51 °FClear.No wind80%30.21 "Hg10 mi
Weather by CustomWeather, © 2015

See weather overviewHow to use our weather pages